STARLINK-11128 [DTC] (60302 NORAD) Tracking and Keplerian Element Data

This shows tracking and keplerian element data for the satellite.

Feedback or suggestion? Click here.




ElementValue
Catalog60302
NameSTARLINK-11128 [DTC]
Epoch Orbit1317
Epoch Day286.81486019
Epoch Year2024
RAAN155.0761
Inclination53.1572
Eccentricity0.0001362
Argument of Perigee70.7074
Mean Anonmoly289.4093
Mean Motion15.75017278
Decay Rate4.574E-05
L11 60302U 24133B 24286.81486019 .00004574 00000+0 34310-4 0 9997
L22 60302 53.1572 155.0761 0001362 70.7074 289.4093 15.75017278 13178



Live tracking and technical data element details for STARLINK-11128 [DTC] (NORAD 60302). STARLINK-11128 [DTC] can be tracked NOW for your location showing map with azimuth and elevation plus other details from your city location.







IsCatalogInMostPopularTable: catalog: 60302, numindb: 11
Update: records affected: 1



GetName: 60302 STARLINK-11128 [DTC]

Hit Count: updated at: Thu, 23 Jan 2025 13:59:22 GMT